Location: Bailen
(14.1842°N, 120.7958°E)
Time: 17:30:11
(UTC+00:00)

IRS-1D - Pass Details

Date: 12 January 2026
Orbit: 737 x 810 km, 98.8° (Epoch: 17 February)

Event Time Altitude Azimuth Distance (km) Brightness Sun altitude
Rises 20:37:46 0° 14° (NNE) 3,321 6.8 -25.2°
Reaches altitude 10° 20:40:06 10° 16° (NNE) 2,389 6.0 -24.7°
Maximum altitude 20:45:24 80° 103° (ESE) 821 3.6 -23.5°
Drops below altitude 10° 20:50:40 10° 189° (S) 2,369 6.1 -22.2°
Sets 20:52:58 0° 191° (S) 3,291 6.9 -21.7°
